sat.trackr.live / text

‹ back to catalog

ONEWEB-0216

NORAD 48801 · 2021-045AL

PAYLOAD ACTIVE UNKNOWN

§ Identity

Operator
Country
UK
Launch date
2021-05-28
Launch site
VOSTO
Launch vehicle
Mass (kg)
RCS (m²)

Purposes: comms

External: N2YO · Heavens-Above · Gunter

§ Orbital elements

Epoch: 2026-09-14T22:30:20.507040Z

Period
109.46 min
Inclination
87.8981°
Eccentricity
0.0002059
Mean motion
13.15546965 rev/d
Perigee alt
1,200.2 km
Apogee alt
1,203.3 km
Semi-major
7,579.9 km
B*
1.6726e-4
RAAN
241.3038°
Arg perigee
85.8651°
Mean anomaly
274.2715°
Rev number
25,610

§ Raw data

ONEWEB-02161 48801U 21045AL  26257.93773735  .00000076  00000+0  16726-3 0  99962 48801  87.8981 241.3038 0002059  85.8651 274.2715 13.15546965256101

JSON: /api/v1/satellites/48801 · /tle

For live sub-satellite position, see the globe view (requires WebGL).

§ Visibility from observer

Set your observer location to see the next 7 days of passes ≥ 10°. The values pass through the URL so the page stays shareable.

No JS? Fill the form by hand. The geolocation button needs JavaScript.